Flag for Brazil Weather past 2 weeks in Bauru, São Paulo, Brazil

Now
75 °F

Sunny.


Feels Like: 77 °F
Forecast: 68 / 92 °F
Wind: No wind

Location: Leite Lopes / Ribeir

Current Time: Oct 24, 2014 at 8:37:59 AM

Latest Report: Oct 24, 2014 at 8:00 AM


Visibility: 10 mi

Pressure: 30.01 "Hg

Humidity: 74%

Dew point: 66 °F

Location of BauruLocation

Historic Weather in Bauru — Graph

°F

Bauru temperature yesterday

Maximum temperature yesterday: 93 °F (at 4:00 PM)
Minimum temperature yesterday: 68 °F (at 6:00 AM)
Average temperature yesterday: 81 °F

Past Weeks' High & Low Weather Summary

 TemperatureHumidityPressure
High104 °F (Oct 14, 4:00 PM)94% (Oct 24, 3:00 AM)30.12 "Hg (Oct 24, 3:00 AM)
Low63 °F (Oct 9, 6:00 AM)11% (Oct 15, 3:00 PM)29.77 "Hg (Oct 18, 4:00 PM)
Average84 °F36%29.96 "Hg
* Reported Oct 9 6:00 AM — Oct 24 7:00 AM, Bauru, Weather by CustomWeather, © 2014

Note: Actual official high and low records may vary slightly from our data, if they occured in-between our weather recording intervals... More about our weather records

Advertising

Bauru weather history for previous 24 hours

 ConditionsComfort  
Time TempWeatherWind HumidityBarometerVisibility
7:00 AM
Oct 24
70 °FSunny.3 mph83%29.95 "Hg10 mi
6:00 AM68 °FClear.1 mph88%29.98 "Hg10 mi
5:00 AM70 °FLight rain. Passing clouds.3 mph83%29.98 "HgN/A
4:00 AM68 °FThunderstorms. Partly cloudy.5 mph83%N/AN/A
3:00 AM66 °FStrong thunderstorms. Partly cloudy.12 mph94%30.01 "Hg1 mi
2:00 AM75 °FThunderstorms. Passing clouds.7 mph69%30.01 "Hg5 mi
1:00 AM77 °FPassing clouds.5 mph57%29.98 "HgN/A
12:00 AM79 °FClear.5 mph51%29.98 "Hg10 mi
11:00 PM
Oct 23
81 °FClear.3 mph48%29.98 "Hg10 mi
10:00 PM81 °FClear.3 mph45%29.98 "Hg10 mi
9:00 PM82 °FClear.5 mph42%29.95 "Hg10 mi
8:00 PM84 °FPassing clouds.8 mph40%29.92 "HgN/A
7:00 PM90 °FThunderstorms. Passing clouds.8 mph33%29.92 "HgN/A
6:00 PM91 °FPassing clouds.9 mph32%29.89 "HgN/A
5:00 PM93 °FScattered clouds.7 mph28%29.92 "HgN/A
4:00 PM93 °FScattered clouds.10 mph30%29.95 "HgN/A
3:00 PM91 °FScattered clouds.7 mph32%29.98 "HgN/A
2:00 PM88 °FScattered clouds.3 mph35%30.01 "HgN/A
1:00 PM90 °FScattered clouds.7 mph31%30.07 "HgN/A
12:00 PM86 °FSunny.9 mph38%30.07 "Hg10 mi
11:00 AM84 °FSunny.6 mph43%30.09 "Hg10 mi
10:00 AM79 °FPartly sunny.8 mph51%30.12 "HgN/A
9:00 AM75 °FSunny.8 mph57%30.12 "Hg10 mi
8:00 AM72 °FSunny.7 mph65%30.09 "Hg10 mi
Weather by CustomWeather, © 2014

See weather overviewHow to use our weather pages